Gadsden, AL

9:49 PM CDT on June 23, 2017 (GMT -0500)
Gadsden Municipal

Weather History for KGAD - January, 2012

Change the Weather History Date:

Tuesday, January 17, 2012

  Actual Average Record
Temperature  
Mean Temperature 53 °F -  
Max Temperature 62 °F 49 °F 80 °F (1943)
Min Temperature 44 °F 29 °F 12 °F (1997)
Degree Days  
Heating Degree Days 12    
Growing Degree Days 3 (Base 50)    
Moisture  
Dew Point 55 °F    
Average Humidity 98    
Maximum Humidity 100    
Minimum Humidity 76    
Precipitation  
Precipitation 0.64 in - - ()
Sea Level Pressure  
Sea Level Pressure 30.09 in    
Wind  
Wind Speed 5 mph (SW)    
Max Wind Speed 12 mph    
Max Gust Speed 24 mph    
Visibility 9 miles    
Events Thunderstorm    
Averages and records for this station are not official NWS values.
T = Trace of Precipitation, MM = Missing Value Source: NWS Daily Summary

Daily Weather History Graph

Daily Weather History Graph

Search for Another Location

Airport or City:

Trip Planner

Search our weather history database for the weather conditions in past years. The results will help you decide how hot, cold, wet, or windy it might be!

Date:

Astronomy

Jan. 17, 2012 Rise Set
Actual Time 6:49 AM CST 4:59 PM CST
Civil Twilight 6:22 AM CST 5:26 PM CST
Nautical Twilight 5:51 AM CST 5:57 PM CST
Astronomical Twilight 5:21 AM CST 6:27 PM CST
Moon 1:09 AM CST (1/17) 11:51 AM CST (1/17)
Length of Visible Light 11h 04m
Length of Day
10h 10m
Waning Crescent, 35% of the Moon is Illuminated
Jan 17
Waning Crescent
Jan 23
New
Jan 30
First Quarter
Feb 7
Full
Feb 14
Last Quarter

Hourly Weather History & Observations

Time (CST) Temp. Windchill Dew Point Humidity Pressure Visibility Wind Dir Wind Speed Gust Speed Precip Events Conditions
12:15 AM 46.4 °F 44.3 °F 39.2 °F 76% 30.22 in 10.0 mi WNW 4.6 mph - N/A   Mostly Cloudy
12:35 AM 48.2 °F - 41.0 °F 76% 30.21 in 10.0 mi Calm Calm - N/A   Scattered Clouds
12:55 AM 46.4 °F - 41.0 °F 81% 30.21 in 10.0 mi Calm Calm - N/A   Clear
1:15 AM 44.6 °F - 42.8 °F 93% 30.21 in 10.0 mi Calm Calm - N/A   Clear
1:35 AM 46.4 °F 44.3 °F 44.6 °F 93% 30.22 in 10.0 mi WNW 4.6 mph - N/A   Scattered Clouds
1:55 AM 48.2 °F - 44.6 °F 87% 30.22 in 10.0 mi Calm Calm - N/A   Overcast
2:15 AM 48.2 °F - 44.6 °F 87% 30.21 in 10.0 mi WSW 3.5 mph - N/A   Overcast
2:35 AM 51.8 °F - 51.8 °F 100% 30.21 in 10.0 mi South 3.5 mph - N/A   Overcast
2:55 AM 53.6 °F - 53.6 °F 100% 30.20 in 10.0 mi SSW 3.5 mph - N/A   Overcast
3:15 AM 53.6 °F - 53.6 °F 100% 30.20 in 10.0 mi SW 3.5 mph - N/A   Overcast
3:35 AM 53.6 °F - 53.6 °F 100% 30.19 in 10.0 mi SSW 4.6 mph - N/A   Overcast
3:55 AM 55.4 °F - 55.4 °F 100% 30.18 in 10.0 mi South 3.5 mph - N/A   Mostly Cloudy
4:35 AM 55.4 °F - 55.4 °F 100% 30.17 in 10.0 mi SW 5.8 mph - N/A   Overcast
4:55 AM 55.4 °F - 55.4 °F 100% 30.16 in 10.0 mi SSW 6.9 mph - N/A   Overcast
5:15 AM 55.4 °F - 53.6 °F 94% 30.15 in 10.0 mi SSW 6.9 mph - N/A   Overcast
5:35 AM 55.4 °F - 55.4 °F 100% 30.14 in 10.0 mi SSW 9.2 mph - N/A   Overcast
5:55 AM 55.4 °F - 55.4 °F 100% 30.16 in 10.0 mi SSW 6.9 mph - N/A   Overcast
6:15 AM 55.4 °F - 55.4 °F 100% 30.15 in 10.0 mi SSE 6.9 mph - N/A   Overcast
6:35 AM 53.6 °F - 53.6 °F 100% 30.14 in 9.0 mi South 5.8 mph - 0.01 in   Overcast
6:55 AM 53.6 °F - 53.6 °F 100% 30.16 in 9.0 mi WSW 6.9 mph - 0.05 in   Mostly Cloudy
7:15 AM 53.6 °F - - N/A% 30.16 in 7.0 mi South 3.5 mph - 0.05 in   Mostly Cloudy
7:35 AM 53.6 °F - - N/A% 30.15 in 10.0 mi SSW 3.5 mph - 0.05 in   Overcast
7:55 AM 53.6 °F - - N/A% 30.14 in 10.0 mi Calm Calm - 0.05 in   Overcast
8:15 AM 53.6 °F - - N/A% 30.15 in 10.0 mi South 6.9 mph - N/A   Overcast
8:55 AM 55.4 °F - 55.4 °F 100% 30.14 in 10.0 mi SSW 8.1 mph - N/A   Overcast
9:15 AM 55.4 °F - - N/A% 30.13 in 10.0 mi SSW 8.1 mph - N/A   Overcast
9:35 AM 57.2 °F - 57.2 °F 100% 30.14 in 10.0 mi SSW 10.4 mph 16.1 mph N/A   Overcast
9:55 AM 57.2 °F - 57.2 °F 100% 30.14 in 10.0 mi SSW 6.9 mph - N/A   Overcast
10:15 AM 57.2 °F - 57.2 °F 100% 30.13 in 10.0 mi SSW 8.1 mph - N/A   Overcast
10:35 AM 57.2 °F - 57.2 °F 100% 30.12 in 9.0 mi SSW 6.9 mph - N/A   Overcast
10:55 AM 57.2 °F - 57.2 °F 100% 30.10 in 10.0 mi SW 6.9 mph - N/A   Overcast
11:15 AM 59.0 °F - 59.0 °F 100% 30.09 in 10.0 mi SW 9.2 mph 16.1 mph N/A   Overcast
11:35 AM 59.0 °F - 59.0 °F 100% 30.08 in 10.0 mi SW 6.9 mph - N/A   Overcast
11:55 AM 60.8 °F - 60.8 °F 100% 30.05 in 10.0 mi SW 8.1 mph 16.1 mph N/A   Overcast
12:15 PM 60.8 °F - 60.8 °F 100% 30.04 in 10.0 mi SW 8.1 mph - N/A   Overcast
12:35 PM 60.8 °F - 60.8 °F 100% 30.03 in 10.0 mi SW 8.1 mph - N/A   Overcast
12:55 PM 60.8 °F - 60.8 °F 100% 30.02 in 10.0 mi SW 8.1 mph 16.1 mph N/A   Overcast
1:55 PM 60.8 °F - 60.8 °F 100% 30.01 in 9.0 mi SSW 5.8 mph - 0.01 in   Overcast
2:15 PM 60.8 °F - 60.8 °F 100% 29.99 in 9.0 mi SSW 5.8 mph - N/A   Overcast
2:35 PM 60.8 °F - 60.8 °F 100% 29.98 in 10.0 mi SSW 8.1 mph - N/A   Overcast
2:55 PM 60.8 °F - 60.8 °F 100% 29.98 in 5.0 mi SSW 5.8 mph - 0.01 in   Overcast
3:15 PM 60.8 °F - 60.8 °F 100% 29.98 in 7.0 mi SSW 3.5 mph - 0.01 in   Overcast
3:35 PM 60.8 °F - - N/A% 29.98 in 5.0 mi SW 5.8 mph - 0.02 in   Overcast
3:55 PM 60.8 °F - - N/A% 29.99 in 7.0 mi SW 6.9 mph - 0.08 in Thunderstorm Overcast
4:15 PM 60.8 °F - - N/A% 29.97 in 8.0 mi SSW 10.4 mph 19.6 mph 0.03 in   Overcast
4:35 PM 60.8 °F - - N/A% 29.97 in 10.0 mi SSW 11.5 mph 17.3 mph 0.03 in   Mostly Cloudy
4:55 PM 62.6 °F - 62.6 °F 100% 29.97 in 10.0 mi SW 11.5 mph 17.3 mph 0.03 in   Mostly Cloudy
5:15 PM 62.6 °F - 62.6 °F 100% 29.98 in 10.0 mi SW 8.1 mph 17.3 mph N/A   Mostly Cloudy
5:35 PM 62.6 °F - 62.6 °F 100% 30.00 in 10.0 mi SSW 9.2 mph - N/A   Mostly Cloudy
5:55 PM 62.6 °F - 62.6 °F 100% 30.00 in 10.0 mi SW 4.6 mph - N/A   Mostly Cloudy
6:15 PM 62.6 °F - 62.6 °F 100% 30.00 in 10.0 mi SSW 5.8 mph - N/A   Overcast
6:35 PM 60.8 °F - - N/A% 29.98 in 10.0 mi SSW 6.9 mph - N/A   Scattered Clouds
6:55 PM 60.8 °F - - N/A% 30.01 in 9.0 mi SW 5.8 mph - 0.02 in   Mostly Cloudy
7:15 PM 60.8 °F - - N/A% 30.01 in 8.0 mi WSW 5.8 mph - 0.12 in Thunderstorm Overcast
7:35 PM 53.6 °F - 53.6 °F 100% 30.03 in 7.0 mi North 6.9 mph 24.2 mph 0.37 in   Overcast
7:55 PM 53.6 °F - 53.6 °F 100% 30.04 in 10.0 mi NW 6.9 mph - 0.39 in   Overcast
8:15 PM 53.6 °F - 53.6 °F 100% 30.04 in 10.0 mi NW 3.5 mph - N/A   Mostly Cloudy
8:35 PM 53.6 °F - 53.6 °F 100% 30.05 in 10.0 mi NW 6.9 mph - N/A   Overcast
8:55 PM 53.6 °F - 53.6 °F 100% 30.03 in 10.0 mi NNW 9.2 mph - N/A   Overcast
9:15 PM 53.6 °F - 53.6 °F 100% 30.04 in 10.0 mi NNW 10.4 mph - N/A   Overcast
9:35 PM 53.6 °F - 53.6 °F 100% 30.05 in 10.0 mi NNW 13.8 mph 18.4 mph N/A   Overcast
9:55 PM 51.8 °F - 51.8 °F 100% 30.07 in 10.0 mi NNW 16.1 mph 23.0 mph N/A   Overcast
10:15 PM 50.0 °F - 48.2 °F 94% 30.08 in 10.0 mi NNW 10.4 mph 18.4 mph N/A   Mostly Cloudy
10:35 PM 48.2 °F - 48.2 °F 100% 30.09 in 10.0 mi NNW 11.5 mph 17.3 mph N/A   Partly Cloudy
10:55 PM 48.2 °F - 48.2 °F 100% 30.10 in 10.0 mi North 13.8 mph 19.6 mph N/A   Scattered Clouds
11:15 PM 46.4 °F 42.4 °F 46.4 °F 100% 30.12 in 10.0 mi NNW 8.1 mph - N/A   Scattered Clouds
11:35 PM 44.6 °F 39.7 °F 42.8 °F 93% 30.12 in 10.0 mi North 9.2 mph - N/A   Clear
11:55 PM 44.6 °F 39.7 °F 42.8 °F 93% 30.12 in 10.0 mi NNW 9.2 mph - N/A   Clear